Starlink 32013

operational
NORAD ID: 60103 Int'l Des: 2024-117 Owner: SPXS Country: US Constellation: starlink
LEOCIRCULAR

About Starlink 32013

Description loading...

Live Position

Loading 3D Globe...

Upcoming Passes

Altitude History

Altitude vs Time

uPlot chart will show altitude changes over time

Two-Line Element Set

1 60103U 24117N 25348.25418470 -.00001263 00000-0 -30535-4 0 9992
2 60103 53.1595 74.1252 0001260 108.2336 251.8802 15.30179979 83809
Epoch: Dec 14, 2025 • Age: 15 hours

Current Status

Altitude 480.9 km
Velocity 7.63 km/s
Sub-Earth Point 52.93°N, 137.64°E
Launch Date Jun 23, 2024
Age 1.4 years
Type internet

Technical Details

Classification Payload
Mass 730.00 kg
Dry Mass 700.00 kg
Total Mass 730.00 kg
Length 0.30 m
Diameter 4.10 m
Span 29.00 m
Shape Box + pan
Manufacturer SPXS
Bus Type Starlink V2M
Phase Status In Orbit
Owner/State SPXS/US

Large Constellations

Loading constellations...